This is the latest recevied weather packets stored in our database for station/object PY2UEP-1. If no packets are shown the sender has not sent any weather packets the latest 10 day(s).
| Time | Temp. | Humidity | Pressure | Rain* | Wind** | Luminosity | Snow |
|---|---|---|---|---|---|---|---|
| 1777756842 | 23.33° C | 63% | 1020.8 hPa | 0 mm | - | - | - |
| 1777756542 | 23.33° C | 63% | 1020.7 hPa | 0 mm | - | - | - |
| 1777756242 | 23.89° C | 63% | 1020.7 hPa | 0 mm | - | - | - |
| 1777755942 | 24.44° C | 62% | 1020.6 hPa | 0 mm | - | - | - |
| 1777755642 | 25° C | 60% | 1020.5 hPa | 0 mm | - | - | - |
| 1777755342 | 25.56° C | 61% | 1020.2 hPa | 0 mm | - | - | - |
| 1777755042 | 25.56° C | 59% | 1020.1 hPa | 0 mm | - | - | - |
| 1777754742 | 26.11° C | 57% | 1020.1 hPa | 0 mm | - | - | - |
| 1777754442 | 26.67° C | 55% | 1019.9 hPa | 0 mm | - | - | - |
| 1777754142 | 26.67° C | 53% | 1019.9 hPa | 0 mm | - | - | - |
| 1777753842 | 27.22° C | 53% | 1019.9 hPa | 0 mm | - | - | - |
| 1777753542 | 27.22° C | 53% | 1020.2 hPa | 0 mm | - | - | - |
| 1777753242 | 27.22° C | 54% | 1020.2 hPa | 0 mm | - | - | - |
| 1777752942 | 27.22° C | 53% | 1020.2 hPa | 0 mm | - | - | - |
| 1777752642 | 27.78° C | 51% | 1020.2 hPa | 0 mm | - | - | - |
| 1777752342 | 27.78° C | 50% | 1019.8 hPa | 0 mm | - | - | - |
| 1777752042 | 28.33° C | 48% | 1019.9 hPa | 0 mm | - | - | - |
| 1777751742 | 28.33° C | 46% | 1019.9 hPa | 0 mm | - | - | - |
| 1777751442 | 28.33° C | 44% | 1019.9 hPa | 0 mm | - | - | - |
| 1777751142 | 28.89° C | 44% | 1019.8 hPa | 0 mm | - | - | - |
| 1777750842 | 28.89° C | 43% | 1019.8 hPa | 0 mm | - | - | - |
| 1777750542 | 28.33° C | 44% | 1019.7 hPa | 0 mm | - | - | - |
| 1777750242 | 28.89° C | 45% | 1019.7 hPa | 0 mm | - | - | - |
| 1777749942 | 28.89° C | 44% | 1019.7 hPa | 0 mm | - | - | - |
| 1777749642 | 29.44° C | 43% | 1019.7 hPa | 0 mm | - | - | - |
* Rain since midnight (hover to see other rain measurements)
** Current wind speed in m/s (hover to see current wind gust speed)